Wind_Speed
33 34 35 37 36 33 31 34 37 37 33 28 23 20 22 27 29 30 29 29 29 27 27 27 28 27 26 26 27 30 35 40 42 44 43 43 41 39 37 36 35 33
34 36 37 38 38 34 30 31 36 37 35 32 27 22 23 24 24 23 22 22 23 25 26 26 26 25 25 26 26 28 31 34 37 38 39 38 37 36 34 32 32 33
35 36 37 36 37 36 32 32 35 36 36 35 30 27 27 26 24 22 20 20 23 24 21 20 20 21 24 26 26 26 28 30 32 34 34 35 34 33 30 28 29 32
37 36 37 36 36 36 33 33 35 35 37 37 34 32 32 33 32 30 27 25 25 24 19 17 18 21 24 25 26 25 24 26 29 31 32 32 30 29 27 26 28 30
39 37 37 37 37 37 34 33 33 34 37 39 37 37 38 40 40 38 36 32 30 28 23 21 22 23 23 24 27 25 22 22 24 28 30 30 28 26 26 26 27 29
40 38 38 38 38 38 36 36 36 36 37 36 35 35 38 42 44 43 43 42 39 36 31 29 28 27 26 27 29 27 22 20 21 24 26 27 26 25 26 26 27 29
40 39 41 40 37 36 36 37 40 40 39 35 33 34 35 39 43 45 46 47 47 43 38 35 33 31 32 31 30 28 24 20 19 21 24 25 26 27 28 29 30 32
41 41 44 43 37 35 35 36 38 40 39 37 35 35 35 35 38 42 43 44 45 43 41 40 39 37 36 34 31 29 26 22 20 20 22 25 27 29 31 33 34 34
44 45 48 47 41 37 37 37 37 38 38 37 35 35 36 35 34 35 37 38 39 40 40 42 42 39 36 33 30 28 25 22 20 20 21 23 26 28 30 32 34 34
48 47 49 50 46 42 40 38 39 41 41 40 37 36 37 38 37 36 36 36 38 39 40 40 39 39 37 33 29 26 23 22 21 20 21 21 23 24 26 28 28 29
51 49 47 50 49 45 43 41 40 42 43 42 40 37 37 39 39 38 39 39 40 41 41 40 37 36 36 33 28 23 22 22 21 21 21 21 21 21 22 23 23 24
52 48 46 49 48 44 45 45 42 42 43 41 40 38 38 39 39 37 38 38 39 38 37 36 34 32 31 29 25 21 20 21 22 23 22 22 21 21 21 22 21 21
52 48 46 48 47 44 46 47 46 48 48 44 41 40 39 41 40 37 35 34 34 33 31 31 31 28 29 30 25 18 18 21 23 23 23 22 21 21 21 20 18 18
54 49 45 45 46 46 48 49 49 52 52 48 44 41 40 41 40 37 33 30 30 30 30 31 31 30 31 32 27 20 20 23 23 22 22 21 20 19 18 17 17 17
56 51 47 45 46 48 49 51 50 49 50 50 48 44 40 39 39 36 33 30 30 31 32 33 33 32 33 36 35 31 28 26 22 20 19 18 18 17 17 17 18 19
56 54 51 48 48 49 49 50 50 47 47 49 49 46 42 40 39 38 35 34 35 35 36 36 33 32 34 37 39 38 35 29 23 20 19 18 18 18 19 20 21 21
53 54 54 52 50 49 49 49 49 47 45 46 47 46 44 41 40 40 39 39 38 38 39 40 38 36 37 37 37 38 37 33 27 24 21 21 21 22 23 23 24 24
50 51 55 55 53 51 49 48 48 46 44 45 46 46 45 43 41 41 40 40 39 39 41 42 42 41 41 38 36 38 38 37 34 30 27 26 25 25 26 27 27 27
47 48 52 56 57 55 52 49 47 46 44 43 44 45 45 44 42 41 40 40 40 41 42 43 43 43 43 40 37 36 38 38 37 35 34 32 30 29 30 30 30 31
46 47 50 54 58 59 57 53 49 47 46 44 44 45 45 45 44 42 41 40 40 40 41 42 43 43 42 40 38 35 36 37 36 35 35 35 34 33 33 32 32 33
46 48 51 53 56 59 60 58 53 49 48 47 46 47 48 48 47 45 43 42 41 40 39 39 40 41 40 40 40 37 36 37 37 36 36 37 36 36 35 35 35 35
46 50 53 54 55 56 58 59 58 55 52 50 49 49 50 51 51 49 48 46 44 42 41 40 40 41 40 39 40 39 39 39 39 38 38 38 38 37 38 38 39 39
45 48 52 55 56 55 55 57 58 58 56 54 53 52 52 53 53 52 51 49 48 47 46 45 44 44 43 42 42 42 43 43 43 43 42 41 41 41 41 41 42 42
47 47 50 54 56 57 56 57 58 59 59 59 58 57 56 56 55 55 54 52 51 50 49 49 49 48 47 46 46 46 47 47 46 45 45 45 45 46 46 46 46 45
51 49 49 51 54 57 58 59 59 59 59 60 61 61 61 59 57 56 56 54 53 51 50 49 50 50 50 49 49 50 50 50 48 46 46 47 48 49 49 49 49 48
56 54 52 51 53 56 58 59 60 60 59 59 60 62 63 62 59 56 53 52 50 49 49 48 48 49 50 50 51 52 52 52 51 49 49 49 49 50 51 51 51 51
Wind_Direction
239 231 223 217 220 228 231 231 239 252 260 262 268 276 267 252 246 247 252 258 264 273 282 286 288 289 288 283 278 273 270 267 264 261 258 255 255 255 255 255 256 257
239 236 227 219 221 232 238 233 234 242 251 255 256 266 271 259 250 254 261 264 269 280 287 287 288 290 291 289 283 278 273 269 265 261 256 254 253 253 254 253 254 256
237 237 229 221 222 231 238 235 233 236 244 248 249 257 264 255 252 263 272 274 276 281 287 287 288 294 298 297 292 285 277 269 265 260 255 252 250 251 251 247 248 253
235 235 228 224 224 232 238 236 234 236 242 246 248 253 256 253 254 262 269 275 274 274 280 284 289 299 305 304 300 292 281 272 265 259 253 249 247 248 247 243 246 252
229 228 225 227 231 236 238 234 235 241 244 246 248 250 252 252 254 257 261 267 269 270 275 282 289 296 297 302 305 297 286 276 268 261 254 248 245 246 246 245 247 252
223 223 223 228 233 236 234 232 236 243 246 247 248 247 247 249 252 254 257 261 264 267 271 279 288 290 288 296 304 299 289 279 270 264 257 249 247 248 249 250 251 254
220 223 224 227 231 233 233 233 235 240 245 249 249 246 244 246 249 252 256 259 262 264 267 275 284 287 287 293 299 298 291 280 270 265 259 251 247 248 251 253 254 255
219 224 226 227 229 232 235 237 236 238 245 249 247 243 242 244 247 251 254 258 260 262 265 273 282 286 287 291 294 294 289 281 272 266 261 255 250 248 249 250 252 254
218 223 226 227 230 232 236 239 238 240 245 248 246 243 243 245 248 250 253 255 259 262 266 271 278 282 286 290 293 291 286 280 275 269 264 259 256 254 253 254 255 257
221 224 226 228 231 233 237 241 242 243 246 248 247 246 248 250 251 253 256 258 261 265 269 271 274 278 283 288 291 290 283 278 276 273 269 264 261 260 259 259 260 262
223 225 227 229 231 234 238 241 243 245 247 249 249 249 252 254 256 257 259 262 265 267 268 270 273 279 281 282 289 294 284 278 277 274 271 268 264 263 262 262 264 265
221 224 228 230 230 233 237 239 240 242 244 248 251 253 255 257 259 260 262 265 266 265 266 266 269 275 275 275 287 298 291 282 279 275 272 269 265 263 263 264 264 262
219 223 227 231 231 231 236 238 238 239 241 246 251 256 258 260 262 263 263 263 261 260 261 262 262 266 268 271 281 300 303 292 282 277 274 269 264 262 260 258 255 252
218 222 225 230 231 231 234 237 239 241 242 245 250 256 259 261 263 262 260 257 256 256 257 258 258 260 264 268 272 285 303 301 289 279 274 267 260 255 250 246 246 250
219 221 222 227 230 231 235 239 241 244 244 245 250 255 257 259 260 259 254 247 247 251 253 256 258 259 263 267 267 270 283 291 288 279 270 262 255 249 244 245 250 256
221 222 223 227 229 231 235 240 243 245 245 245 249 252 255 256 257 256 250 242 241 246 251 254 256 258 263 267 269 272 276 278 276 274 268 259 254 251 250 252 256 262
223 225 226 229 230 231 234 238 242 244 245 245 247 250 251 252 251 252 252 249 247 247 249 252 255 258 262 266 270 275 277 275 270 267 266 264 262 259 259 260 262 266
227 230 231 231 232 231 232 236 240 242 244 246 247 248 249 249 248 250 251 251 250 249 249 252 256 258 262 266 269 271 273 274 272 268 266 268 269 267 265 264 266 268
231 234 235 235 235 233 233 235 238 240 242 244 245 247 247 246 245 246 247 248 249 250 252 254 257 259 262 265 267 267 268 270 270 269 270 271 271 271 269 266 267 270
234 234 236 236 237 236 235 235 236 238 240 241 242 242 242 242 242 243 245 247 249 251 253 256 258 260 261 262 264 264 263 264 266 267 269 270 272 274 272 267 267 270
234 234 234 235 237 238 237 236 235 235 236 237 238 238 238 238 240 242 244 245 248 250 253 255 257 259 261 262 262 261 260 261 263 264 267 269 271 273 272 270 271 273
230 232 233 234 235 237 237 236 236 235 234 233 233 235 236 237 238 241 244 245 246 248 251 253 257 260 261 261 261 260 258 260 262 263 265 267 268 269 270 270 272 274
225 229 232 234 235 235 235 235 235 235 235 233 232 233 235 236 237 239 242 244 246 248 250 253 257 261 264 264 263 261 259 260 263 265 265 266 266 268 270 270 270 272
223 225 229 233 235 236 235 234 235 235 236 236 236 235 236 237 238 240 242 243 245 249 251 253 256 259 263 265 266 266 265 265 266 266 266 266 267 268 270 271 271 270
224 224 226 229 233 236 237 236 235 235 235 236 238 238 238 239 239 241 243 245 247 251 253 255 257 259 261 263 265 266 268 269 268 267 267 268 268 269 270 270 270 269
225 225 226 226 228 231 235 236 236 235 234 235 236 238 239 239 240 241 243 246 249 251 252 255 257 258 258 260 263 266 268 269 269 268 268 269 269 269 269 269 268 267
Height
10636 10641 10643 10646 10647 10646 10646 10645 10644 10645 10646 10646 10647 10650 10652 10654 10657 10660 10662 10662 10662 10662 10663 10663 10662 10661 10660 10659 10659 10658 10657 10656 10656 10657 10658 10660 10661 10663 10664 10665 10665 10666
10631 10635 10639 10642 10643 10643 10642 10641 10641 10641 10642 10642 10644 10647 10649 10650 10653 10656 10658 10658 10657 10657 10658 10658 10657 10657 10656 10655 10654 10653 10652 10651 10652 10652 10653 10655 10657 10658 10660 10662 10662 10662
10626 10630 10634 10637 10638 10639 10638 10637 10637 10637 10637 10637 10640 10644 10645 10646 10648 10651 10653 10653 10652 10653 10653 10653 10653 10653 10653 10651 10650 10649 10647 10647 10647 10648 10649 10650 10652 10654 10655 10657 10658 10657
10620 10624 10628 10631 10633 10633 10633 10633 10633 10632 10632 10634 10637 10640 10641 10642 10644 10646 10648 10649 10648 10649 10649 10649 10649 10649 10649 10648 10647 10645 10644 10643 10643 10644 10645 10646 10648 10649 10651 10652 10653 10653
10615 10619 10623 10626 10626 10627 10628 10629 10629 10629 10629 10631 10633 10635 10636 10637 10639 10642 10644 10644 10645 10645 10645 10645 10646 10646 10646 10645 10644 10642 10640 10640 10640 10640 10641 10642 10644 10645 10646 10648 10649 10649
10611 10614 10618 10619 10619 10621 10623 10623 10624 10625 10625 10627 10629 10630 10631 10632 10634 10637 10639 10640 10641 10642 10642 10642 10642 10643 10643 10642 10640 10639 10638 10637 10636 10636 10637 10638 10639 10641 10642 10644 10645 10646
10606 10609 10612 10613 10614 10616 10618 10619 10619 10620 10621 10622 10624 10626 10627 10628 10629 10632 10634 10636 10637 10638 10639 10638 10638 10639 10639 10638 10637 10636 10635 10633 10633 10633 10633 10634 10635 10637 10638 10640 10641 10642
10601 10604 10605 10607 10609 10611 10613 10614 10615 10616 10616 10617 10619 10621 10623 10624 10625 10627 10629 10631 10632 10634 10635 10634 10634 10634 10634 10634 10633 10632 10632 10630 10629 10629 10629 10630 10631 10632 10634 10635 10637 10638
10596 10598 10598 10601 10604 10606 10607 10609 10610 10611 10611 10611 10614 10616 10618 10619 10620 10622 10624 10626 10627 10629 10630 10630 10630 10630 10630 10630 10629 10629 10628 10627 10626 10626 10626 10627 10627 10628 10629 10631 10632 10634
10591 10593 10594 10597 10599 10600 10602 10604 10604 10605 10605 10606 10609 10612 10613 10614 10616 10618 10620 10621 10623 10624 10625 10626 10626 10626 10627 10627 10626 10625 10624 10624 10623 10623 10623 10623 10624 10625 10626 10627 10628 10629
10586 10588 10590 10592 10594 10595 10597 10598 10598 10599 10600 10601 10604 10607 10608 10608 10611 10615 10617 10618 10618 10620 10621 10622 10622 10623 10624 10624 10623 10622 10621 10621 10620 10620 10620 10620 10621 10621 10622 10623 10624 10625
10581 10583 10585 10587 10589 10591 10591 10592 10592 10593 10595 10597 10600 10602 10603 10603 10605 10610 10612 10613 10614 10615 10616 10617 10618 10619 10620 10621 10620 10619 10618 10618 10617 10617 10617 10617 10617 10618 10619 10619 10620 10621
10575 10578 10580 10582 10584 10586 10587 10586 10586 10588 10591 10594 10596 10597 10597 10597 10600 10604 10607 10608 10609 10610 10612 10612 10614 10615 10616 10617 10617 10616 10615 10615 10615 10614 10614 10614 10614 10615 10615 10616 10617 10618
10569 10573 10575 10577 10579 10581 10582 10580 10580 10584 10589 10591 10592 10592 10592 10592 10595 10598 10601 10603 10605 10606 10607 10607 10609 10610 10611 10612 10613 10612 10612 10612 10612 10612 10611 10611 10611 10612 10612 10613 10614 10615
10563 10567 10570 10572 10573 10575 10576 10575 10576 10581 10585 10587 10587 10588 10588 10588 10590 10593 10595 10598 10600 10602 10602 10602 10603 10605 10606 10608 10609 10609 10609 10610 10610 10609 10609 10608 10609 10609 10609 10610 10611 10612
10558 10560 10563 10565 10567 10569 10570 10571 10572 10576 10580 10582 10583 10583 10584 10584 10585 10587 10590 10592 10594 10596 10597 10597 10598 10599 10601 10602 10603 10604 10605 10607 10607 10606 10606 10606 10606 10606 10607 10607 10608 10609
10552 10554 10556 10558 10560 10563 10565 10566 10568 10571 10574 10576 10577 10578 10579 10580 10581 10582 10584 10586 10588 10589 10590 10591 10592 10593 10595 10596 10598 10599 10600 10601 10603 10603 10603 10603 10603 10603 10603 10604 10604 10604
10546 10548 10549 10552 10555 10558 10560 10562 10564 10567 10570 10571 10572 10573 10574 10575 10576 10578 10579 10581 10582 10583 10584 10585 10586 10587 10589 10591 10592 10594 10594 10595 10596 10598 10598 10599 10599 10599 10599 10600 10600 10600
10541 10542 10543 10545 10548 10552 10555 10557 10559 10562 10565 10567 10567 10568 10569 10570 10571 10573 10574 10575 10576 10577 10578 10579 10580 10582 10583 10585 10587 10587 10588 10589 10589 10591 10592 10594 10594 10595 10595 10595 10596 10596
10535 10537 10537 10539 10542 10545 10549 10552 10555 10558 10560 10562 10563 10563 10564 10565 10566 10567 10568 10569 10570 10572 10573 10574 10575 10576 10577 10579 10581 10581 10582 10582 10583 10583 10585 10587 10588 10589 10590 10590 10590 10591
10529 10530 10532 10533 10535 10538 10542 10546 10549 10552 10554 10556 10557 10558 10559 10560 10560 10561 10563 10564 10565 10566 10567 10568 10569 10570 10571 10573 10574 10575 10575 10576 10577 10577 10578 10579 10581 10583 10583 10584 10584 10585
10522 10524 10526 10528 10529 10531 10535 10539 10542 10543 10545 10548 10550 10551 10552 10553 10555 10556 10557 10559 10560 10560 10561 10562 10562 10563 10565 10566 10567 10569 10569 10570 10570 10571 10571 10572 10574 10576 10577 10577 10578 10579
10516 10518 10520 10522 10523 10525 10528 10531 10533 10536 10539 10541 10543 10544 10545 10547 10548 10549 10551 10552 10554 10554 10555 10556 10557 10557 10558 10559 10560 10561 10562 10563 10564 10565 10565 10566 10567 10568 10569 10570 10571 10572
10510 10512 10514 10515 10517 10519 10521 10523 10526 10529 10532 10534 10536 10537 10538 10540 10541 10542 10543 10546 10547 10548 10549 10550 10551 10552 10552 10552 10552 10553 10554 10556 10557 10558 10558 10559 10560 10561 10562 10563 10564 10565
10502 10504 10506 10508 10510 10512 10514 10516 10518 10521 10524 10527 10529 10530 10531 10533 10535 10535 10536 10539 10541 10542 10543 10544 10545 10546 10546 10546 10546 10546 10546 10547 10549 10550 10551 10552 10553 10553 10554 10555 10556 10557
10494 10496 10499 10501 10503 10505 10507 10509 10511 10514 10517 10519 10521 10523 10524 10526 10528 10529 10530 10533 10535 10536 10536 10537 10538 10539 10540 10540 10540 10540 10540 10540 10541 10542 10543 10544 10545 10545 10546 10547 10548 10549